Wind_Speed
42 45 45 43 43 44 46 47 48 49 51 53 55 57 59 59 60 61 60 59 58 58 61 64 66 66 66 67 68 68 65 59 56 52 55 58 60 63 64 65 65 66 68
43 44 42 43 43 46 48 50 52 53 55 56 57 58 59 60 60 60 59 59 60 63 65 64 64 65 68 68 67 64 60 59 59 59 61 64 67 68 68 68 71 73 75
41 42 44 46 46 48 50 53 53 55 55 57 59 60 60 60 58 58 61 63 65 64 64 64 65 66 65 65 65 65 63 63 66 69 69 72 74 74 75 77 80 82 85
44 45 46 47 48 51 55 56 57 58 59 59 59 58 58 60 61 63 65 65 65 64 65 65 64 64 64 65 67 70 70 73 76 78 79 80 81 82 85 87 86 91 93
47 49 55 60 61 62 60 60 59 58 59 59 60 60 61 62 62 61 61 63 63 63 63 63 64 65 67 68 69 72 75 78 82 84 85 85 87 90 94 95 97 95 90
62 62 61 63 62 60 59 59 60 60 60 61 61 61 59 58 59 62 64 62 61 62 63 64 65 67 70 73 75 78 82 84 86 89 90 93 94 96 96 93 91 92 90
54 53 55 57 58 58 58 59 60 60 59 58 58 57 58 61 63 64 63 62 63 65 65 67 70 73 77 79 81 83 87 89 90 92 92 94 92 91 92 92 94 95 94
55 56 56 56 56 57 57 57 57 56 55 57 59 60 62 62 64 64 64 65 67 68 71 73 76 80 83 85 87 88 88 86 88 90 90 90 92 93 96 97 96 94 91
56 56 55 54 54 55 56 57 56 56 57 58 60 62 64 66 66 67 68 69 71 73 76 79 83 86 88 89 89 88 86 86 87 89 91 92 94 95 95 94 90 88 83
50 51 53 53 53 54 55 56 57 59 61 63 65 67 68 68 69 69 71 75 77 79 82 86 88 89 88 87 88 87 85 85 87 89 92 92 92 90 89 88 85 80 75
49 50 52 52 54 56 58 59 61 64 66 67 68 68 70 71 72 74 77 78 80 83 86 88 86 85 86 85 84 85 88 89 89 90 90 90 88 87 84 79 74 70 63
52 53 55 57 58 59 61 64 65 66 66 67 69 71 72 73 74 76 79 83 87 87 82 81 83 83 82 84 86 88 89 89 90 89 89 87 83 78 73 68 65 60 54
56 57 58 60 61 62 63 64 66 67 68 69 70 72 75 77 79 81 84 84 81 80 81 80 80 83 84 85 87 88 89 90 90 87 82 77 72 69 66 61 55 49 44
59 61 62 63 64 66 66 67 69 70 71 71 71 73 76 82 84 80 78 79 80 79 79 81 81 83 84 85 87 89 90 88 85 80 75 71 67 62 59 53 45 40 39
64 66 68 69 70 70 70 71 70 71 72 72 73 76 79 76 75 75 75 76 77 79 78 80 82 83 85 87 89 88 86 84 81 77 73 66 59 53 48 45 39 39 37
69 69 70 70 69 69 69 70 71 71 71 71 70 71 71 72 73 73 74 76 76 78 79 81 83 85 88 90 89 86 82 80 77 74 67 56 48 42 39 38 37 36 35
70 71 71 70 69 69 70 69 69 68 68 67 69 70 70 70 73 73 73 74 76 78 80 81 83 86 87 87 87 84 81 76 72 64 53 45 41 40 38 38 33 33 30
67 67 67 68 68 67 66 66 67 68 69 70 70 70 71 72 71 71 73 74 76 78 80 81 83 81 82 86 84 82 77 71 62 50 42 41 40 37 36 34 31 30 31
65 66 67 66 66 66 67 68 67 68 67 68 71 70 69 68 69 71 72 74 75 76 77 78 77 78 81 83 81 77 67 59 50 44 40 39 38 37 37 37 36 32 30
67 67 67 68 68 67 67 66 65 67 68 69 67 67 67 67 68 70 70 71 72 73 74 72 74 78 81 80 80 68 56 50 45 41 39 37 40 39 37 35 35 33 31
68 69 69 66 65 64 65 66 68 69 68 67 66 67 67 67 67 67 68 69 70 72 70 70 76 75 77 79 76 60 51 47 43 40 40 41 41 38 39 36 36 33 33
67 66 65 65 65 66 67 67 67 67 66 66 66 66 67 68 68 70 70 69 71 70 68 71 75 75 74 79 64 55 50 46 44 42 40 37 36 36 35 35 35 34 34
64 64 64 65 67 67 66 66 66 66 66 66 66 67 67 68 69 70 70 69 69 68 69 71 74 76 74 78 59 51 47 45 43 41 39 36 35 35 34 34 34 33 34
65 65 65 66 66 66 65 65 65 65 65 66 66 66 65 67 69 67 67 68 66 68 71 73 73 75 78 72 54 48 46 44 43 42 41 37 35 34 34 35 36 36 35
67 67 67 67 67 66 65 65 65 65 66 66 66 65 67 67 66 68 66 65 66 69 74 74 76 78 76 59 52 47 45 44 40 34 34 36 37 37 38 38 37 38 38
68 68 68 68 67 66 64 63 64 64 65 66 65 67 67 66 68 67 66 67 72 74 74 77 79 76 62 51 48 45 43 42 38 32 29 31 35 37 38 39 38 37 37
Wind_Direction
264 266 266 268 271 274 277 279 282 284 286 287 288 290 290 291 293 294 294 293 292 293 294 294 296 296 296 296 297 297 297 296 297 298 299 298 298 297 296 296 295 295 296
262 264 268 270 273 275 278 281 283 284 285 287 288 290 292 293 294 294 293 293 293 293 293 294 294 294 295 296 296 295 295 296 296 295 298 298 296 295 293 293 294 295 295
264 267 270 274 277 281 281 281 282 285 288 291 291 292 292 292 292 292 292 292 291 291 292 293 294 295 296 297 297 296 293 294 295 298 298 296 295 294 295 296 297 296 296
266 270 274 277 279 280 281 284 286 287 289 290 290 290 291 290 291 291 290 290 291 293 294 294 294 296 298 298 298 298 294 293 295 297 298 298 298 297 298 296 295 295 294
271 276 280 283 285 284 284 286 287 289 290 290 290 290 290 289 289 289 291 291 293 293 293 294 295 297 299 299 298 297 297 296 296 297 298 299 299 299 297 297 295 294 294
277 281 280 279 278 282 285 287 289 290 290 290 290 289 289 290 290 291 292 293 293 293 294 295 296 296 297 297 297 297 297 297 298 299 300 299 299 297 296 297 296 296 296
274 276 276 278 281 284 286 286 286 287 287 287 287 288 289 289 290 291 292 292 292 291 293 294 296 297 297 298 298 299 299 299 299 300 300 299 299 298 297 298 298 300 301
276 278 280 282 283 284 285 285 285 285 285 287 288 289 290 291 291 292 291 291 292 293 293 295 297 298 299 299 299 300 301 300 299 299 299 299 300 301 302 303 303 303 304
278 280 281 281 282 283 283 283 282 284 286 287 288 288 288 289 289 290 290 291 292 295 297 297 296 298 299 300 300 299 299 300 300 300 301 302 304 304 304 304 304 304 303
278 279 280 282 283 282 283 283 283 283 284 284 285 286 286 288 290 291 291 293 295 297 297 298 299 299 300 300 299 299 300 299 300 302 303 304 304 305 305 304 304 303 302
280 281 281 280 280 281 283 282 281 282 284 285 287 288 289 290 292 293 294 294 295 295 295 297 299 299 299 300 301 301 302 302 303 303 304 305 305 305 304 303 302 302 302
277 277 277 278 280 281 281 282 283 285 287 288 288 288 290 291 292 292 291 291 291 294 297 298 298 299 300 301 302 302 304 305 306 308 308 306 304 303 301 301 301 302 300
278 278 278 280 281 282 282 283 284 286 286 287 289 289 290 291 291 290 290 294 298 298 300 301 300 301 302 303 305 305 307 309 309 309 307 305 304 302 301 301 300 299 295
279 280 281 283 284 285 284 285 285 286 287 287 287 288 287 286 288 295 297 297 299 299 300 301 301 302 304 306 307 308 311 311 310 308 307 306 303 301 300 300 297 293 289
283 284 285 285 285 286 287 286 285 285 286 287 286 285 288 292 293 294 295 295 296 297 299 301 302 305 307 308 310 312 312 311 310 309 306 303 300 298 297 297 294 289 287
281 282 284 285 285 285 285 284 284 284 283 285 287 288 290 291 292 293 294 296 299 300 303 305 307 309 310 310 312 313 313 312 310 306 303 299 297 295 297 295 293 293 288
285 286 287 287 285 283 282 282 284 285 287 288 288 289 290 291 292 295 298 300 302 304 307 309 310 311 314 314 315 315 315 313 308 304 299 297 295 294 295 297 295 293 294
285 283 282 281 281 282 283 285 286 287 288 289 290 290 292 294 296 298 301 302 304 306 309 311 314 316 315 316 317 318 316 311 306 301 294 294 295 291 294 298 294 294 294
280 280 281 281 282 284 286 285 285 286 287 289 291 293 295 296 298 300 301 303 306 308 311 314 315 315 317 319 319 319 312 308 304 299 295 283 287 289 294 295 295 290 292
279 280 280 282 284 284 284 285 286 287 288 289 291 293 295 297 298 301 303 305 307 310 314 314 313 316 319 319 320 315 307 304 301 297 292 295 282 282 287 288 294 285 288
279 280 281 282 282 284 285 285 286 287 289 290 291 293 295 296 299 302 303 306 308 311 313 313 316 318 319 319 321 311 304 302 297 296 293 291 289 287 282 284 288 282 281
277 279 281 282 283 283 284 286 286 288 289 290 291 293 295 297 300 302 304 307 309 309 310 311 316 318 318 322 316 308 305 299 295 292 293 293 287 288 286 280 281 277 276
278 279 280 281 281 283 284 286 287 288 289 290 291 294 297 299 301 302 304 307 306 308 310 312 316 317 318 320 310 303 303 304 298 290 288 291 287 284 284 277 276 277 275
276 277 278 279 281 283 285 286 287 288 289 290 293 295 298 299 300 302 303 305 306 308 311 311 315 316 316 315 304 299 297 303 302 289 282 285 287 286 285 282 275 271 273
275 276 278 280 281 283 284 285 286 287 288 290 292 295 297 299 300 300 303 305 305 306 310 311 312 312 314 306 299 295 292 299 302 300 284 280 284 286 285 283 276 272 270
275 277 278 280 281 282 283 284 286 287 289 292 293 293 296 297 297 299 301 303 305 308 308 309 311 311 307 299 295 292 289 293 293 292 291 291 291 292 292 282 274 270 272
Height
5805 5805 5803 5802 5801 5800 5799 5796 5794 5791 5788 5785 5781 5778 5774 5769 5765 5760 5756 5750 5744 5740 5735 5730 5724 5719 5713 5707 5701 5696 5691 5685 5684 5685 5677 5672 5667 5661 5656 5650 5645 5640 5634
5794 5794 5793 5792 5790 5789 5788 5786 5783 5779 5776 5773 5769 5765 5760 5756 5751 5747 5742 5737 5732 5726 5720 5716 5711 5705 5699 5693 5687 5681 5676 5671 5667 5668 5662 5656 5650 5644 5639 5634 5628 5622 5615
5783 5783 5782 5781 5779 5778 5776 5774 5771 5767 5763 5759 5755 5751 5747 5742 5738 5733 5728 5723 5718 5713 5707 5701 5696 5690 5683 5678 5672 5666 5660 5656 5651 5647 5646 5639 5631 5623 5619 5613 5608 5602 5593
5773 5773 5772 5770 5768 5765 5763 5760 5756 5753 5749 5745 5742 5737 5733 5729 5724 5719 5714 5708 5703 5698 5693 5687 5681 5675 5670 5663 5657 5651 5646 5640 5634 5628 5623 5618 5610 5601 5593 5588 5588 5578 5571
5762 5761 5759 5757 5754 5751 5748 5746 5742 5738 5734 5731 5727 5723 5719 5715 5710 5704 5700 5695 5689 5683 5677 5672 5667 5661 5656 5649 5643 5636 5628 5622 5615 5609 5603 5596 5587 5578 5568 5562 5555 5552 5546
5749 5747 5745 5743 5741 5737 5734 5730 5727 5723 5720 5716 5712 5708 5704 5700 5696 5691 5686 5680 5675 5670 5663 5657 5652 5646 5639 5633 5626 5618 5609 5601 5594 5586 5579 5569 5562 5550 5543 5534 5525 5520 5519
5736 5734 5732 5729 5726 5723 5720 5716 5713 5710 5706 5702 5698 5695 5691 5686 5681 5676 5671 5666 5660 5654 5649 5643 5636 5629 5622 5615 5608 5598 5588 5578 5568 5561 5554 5543 5536 5523 5515 5510 5500 5490 5485
5721 5719 5718 5715 5712 5709 5706 5703 5699 5695 5692 5688 5685 5681 5677 5672 5667 5662 5657 5651 5645 5639 5632 5626 5619 5612 5604 5595 5589 5580 5569 5558 5548 5539 5529 5521 5509 5499 5487 5479 5471 5464 5456
5707 5706 5703 5701 5698 5695 5692 5689 5685 5682 5678 5675 5670 5665 5661 5656 5652 5646 5641 5636 5629 5621 5614 5607 5600 5591 5582 5574 5567 5560 5551 5540 5529 5518 5506 5495 5485 5473 5461 5452 5443 5433 5430
5693 5691 5689 5687 5684 5682 5679 5675 5672 5668 5664 5659 5654 5649 5644 5640 5635 5629 5623 5617 5611 5604 5595 5587 5578 5569 5560 5552 5545 5537 5530 5521 5511 5501 5488 5475 5463 5452 5440 5428 5418 5411 5403
5679 5677 5675 5673 5670 5668 5665 5661 5657 5652 5648 5643 5638 5634 5628 5622 5617 5611 5604 5597 5591 5583 5575 5568 5558 5550 5542 5533 5523 5515 5506 5499 5490 5478 5468 5455 5442 5431 5419 5408 5399 5392 5387
5664 5662 5659 5657 5654 5651 5648 5644 5640 5635 5631 5625 5620 5614 5608 5602 5597 5591 5584 5577 5570 5563 5556 5548 5540 5531 5523 5514 5504 5494 5483 5472 5463 5454 5443 5432 5421 5410 5401 5392 5384 5378 5371
5649 5647 5644 5641 5638 5635 5631 5627 5623 5618 5613 5608 5602 5596 5589 5583 5578 5571 5565 5557 5550 5543 5536 5528 5520 5512 5502 5493 5482 5471 5460 5449 5439 5430 5420 5409 5400 5392 5384 5378 5369 5365 5360
5634 5631 5628 5625 5622 5617 5613 5609 5604 5599 5594 5589 5584 5579 5571 5564 5558 5551 5546 5538 5530 5524 5517 5510 5502 5493 5483 5472 5462 5450 5439 5427 5416 5406 5398 5389 5381 5374 5367 5362 5358 5354 5350
5618 5615 5612 5608 5604 5599 5594 5589 5585 5580 5576 5571 5567 5561 5555 5548 5541 5535 5529 5521 5514 5507 5500 5492 5483 5474 5463 5453 5442 5430 5418 5406 5395 5385 5376 5369 5363 5358 5353 5350 5346 5343 5340
5600 5596 5593 5589 5585 5580 5575 5570 5565 5561 5556 5552 5548 5543 5537 5531 5524 5517 5511 5502 5495 5487 5479 5471 5461 5451 5441 5432 5422 5412 5400 5388 5376 5366 5357 5351 5348 5345 5342 5338 5336 5333 5330
5580 5577 5573 5569 5564 5559 5554 5550 5546 5541 5536 5533 5529 5523 5518 5512 5505 5498 5492 5483 5474 5467 5458 5449 5440 5430 5420 5409 5399 5389 5380 5368 5357 5348 5342 5338 5336 5334 5332 5329 5326 5323 5321
5561 5558 5554 5550 5545 5542 5538 5533 5528 5523 5517 5513 5509 5504 5499 5492 5485 5479 5472 5463 5455 5446 5438 5430 5421 5411 5400 5390 5380 5370 5359 5348 5339 5333 5330 5327 5325 5323 5321 5318 5316 5314 5312
5540 5537 5534 5531 5527 5523 5519 5516 5510 5505 5499 5493 5487 5482 5479 5472 5464 5459 5453 5446 5439 5430 5422 5413 5403 5394 5384 5373 5362 5352 5342 5334 5327 5322 5318 5317 5315 5313 5311 5309 5307 5305 5303
5520 5517 5515 5512 5508 5505 5500 5496 5491 5487 5482 5476 5470 5465 5460 5455 5448 5441 5434 5428 5421 5413 5406 5397 5387 5378 5368 5357 5346 5335 5327 5321 5315 5311 5308 5305 5303 5302 5300 5299 5297 5295 5293
5500 5497 5494 5491 5488 5484 5481 5477 5473 5468 5463 5458 5453 5448 5443 5438 5432 5425 5419 5412 5405 5397 5389 5380 5372 5362 5352 5341 5330 5321 5314 5309 5304 5300 5296 5294 5292 5290 5288 5288 5287 5285 5284
5480 5476 5474 5472 5468 5466 5462 5458 5454 5450 5445 5440 5435 5430 5426 5420 5414 5408 5401 5395 5388 5381 5373 5365 5356 5347 5337 5326 5315 5307 5301 5296 5292 5288 5285 5282 5279 5278 5276 5275 5275 5274 5273
5460 5458 5456 5452 5450 5446 5443 5439 5435 5431 5427 5422 5417 5412 5407 5402 5396 5390 5384 5377 5370 5363 5356 5349 5340 5330 5320 5311 5301 5295 5289 5283 5279 5275 5273 5270 5268 5267 5265 5264 5263 5262 5261
5440 5438 5435 5433 5430 5427 5424 5421 5417 5413 5408 5404 5400 5395 5390 5385 5379 5372 5367 5360 5353 5346 5339 5331 5322 5313 5304 5294 5286 5282 5278 5272 5266 5262 5260 5258 5257 5255 5254 5252 5251 5250 5249
5420 5417 5416 5414 5411 5408 5405 5402 5398 5394 5391 5386 5382 5378 5372 5367 5361 5355 5349 5344 5337 5330 5321 5313 5304 5296 5287 5278 5272 5267 5264 5260 5255 5249 5247 5246 5245 5243 5241 5240 5238 5237 5237
5400 5398 5396 5394 5391 5389 5387 5383 5380 5376 5373 5368 5364 5359 5355 5349 5343 5337 5331 5326 5320 5312 5304 5295 5286 5276 5267 5261 5257 5254 5250 5248 5244 5241 5238 5236 5233 5231 5228 5225 5224 5224 5224